Weather History for Nikolai AP, Nikolai, AK, AK

Change the Weather History Date:

Tuesday, December 17, 2013

  Actual Average (PAMC) Record (PAMC)
Temperature  
Mean Temperature -18 °F -3 °F  
Max Temperature -1 °F - 39 °F (1984)
Min Temperature -33 °F -12 °F -50 °F (1977)
Degree Days  
Heating Degree Days 82 68  
Month to date heating degree days 1134  
Since 1 July heating degree days 5266  
Cooling Degree Days 0    
Month to date cooling degree days  
Year to date cooling degree days 16  
Moisture  
Dew Point -19 °F    
Average Humidity 75    
Maximum Humidity 84    
Minimum Humidity 69    
Precipitation  
Precipitation 0.00 in 0.05 in 0.80 in (1978)
Month to date precipitation 0.69  
Year to date precipitation 17.40  
Snow  
Snow 0.00 in 0.70 in 8.30 in (1978)
Month to date snowfall 11.1  
Since 1 July snowfall 42.1  
Snow Depth -    
Sea Level Pressure  
Sea Level Pressure 30.42 in    
Wind  
Wind Speed 0 mph (North)    
Max Wind Speed 0 mph    
Max Gust Speed -    
Visibility 9 miles    
Events Snow    
T = Trace of Precipitation, MM = Missing Value Source: NWS Daily Summary

Daily Weather History Graph

Daily Weather History Graph

Search for Another Location

Airport:

Trip Planner

Search our weather history database for the weather conditions in past years. The results will help you decide how hot, cold, wet, or windy it might be!

Date:

Astronomy

Dec. 17, 2013 Rise Set
Actual Time 10:51 AM AKST 3:35 PM AKST
Civil Twilight 9:40 AM AKST 4:46 PM AKST
Nautical Twilight 8:35 AM AKST 5:51 PM AKST
Astronomical Twilight 7:38 AM AKST 6:49 PM AKST
Moon 4:56 PM AKST (12/17) 10:26 AM AKST (12/17)
Length of Visible Light 7h 06m
Length of Day
4h 44m
Full, 100% of the Moon is Illuminated
Dec 17
Full
Dec 25
Last Quarter
Jan 1
New
Jan 7
First Quarter
Jan 15
Full

Hourly Weather History & Observations

Time (AKST) Temp. Dew Point Humidity Pressure Visibility Wind Dir Wind Speed Gust Speed Precip Events Conditions
12:56 AM -33.0 °F - N/A% 30.47 in 10.0 mi Calm Calm - 0.00 in Snow Light Snow
1:56 AM -27.9 °F -35.0 °F 69% 30.47 in 10.0 mi Calm Calm - 0.00 in Snow Light Snow
2:56 AM -25.6 °F -32.8 °F 69% 30.38 in 10.0 mi Calm Calm - N/A Snow Light Snow
3:56 AM -24.0 °F -31.0 °F 70% 30.46 in 10.0 mi Calm Calm - 0.00 in   Overcast
4:56 AM -22.0 °F -28.8 °F 71% 30.46 in 10.0 mi Calm Calm - 0.00 in   Overcast
5:56 AM -20.2 °F -27.4 °F 69% 30.38 in 9.0 mi Calm Calm - N/A Snow Light Snow
6:56 AM -18.9 °F -24.9 °F 74% 30.45 in 8.0 mi Calm Calm - 0.00 in Snow Light Snow
7:56 AM -17.9 °F -24.0 °F 74% 30.45 in 10.0 mi Calm Calm - 0.00 in Snow Light Snow
8:56 AM -16.6 °F -23.8 °F 70% 30.36 in 10.0 mi Calm Calm - N/A Snow Light Snow
9:56 AM -15.9 °F -22.0 °F 74% 30.45 in 10.0 mi Calm Calm - 0.00 in Snow Light Snow
10:56 AM -15.0 °F -20.9 °F 75% 30.46 in 10.0 mi Calm Calm - 0.00 in   Overcast
11:56 AM -14.8 °F -18.4 °F 84% 30.37 in 10.0 mi Calm Calm - N/A Snow Light Snow
12:56 PM -11.9 °F -17.9 °F 75% 30.47 in 10.0 mi Calm Calm - 0.00 in Snow Light Snow
1:56 PM -10.8 °F -15.9 °F 78% 30.46 in 10.0 mi Calm Calm - 0.00 in Snow Light Snow
2:56 PM -9.4 °F -14.8 °F 77% 30.38 in 5.0 mi Calm Calm - N/A Snow Light Snow
3:20 PM -9.4 °F -14.8 °F 77% 30.38 in 7.0 mi Calm Calm - 0.00 in Snow Light Snow
3:56 PM -8.0 °F -13.9 °F 75% 30.45 in 9.0 mi Calm Calm - 0.00 in Snow Light Snow
4:56 PM -8.0 °F -13.9 °F 75% 30.45 in 10.0 mi Calm Calm - 0.00 in   Overcast
5:56 PM -6.9 °F -13.0 °F 75% 30.43 in 10.0 mi Calm Calm - 0.00 in   Overcast
6:56 PM -6.9 °F -13.0 °F 75% 30.43 in 7.0 mi Calm Calm - 0.00 in Snow Light Snow
7:56 PM -6.0 °F -11.9 °F 75% 30.43 in 10.0 mi Calm Calm - 0.00 in Snow Light Snow
8:42 PM -5.8 °F -11.2 °F 77% 30.36 in 8.0 mi Calm Calm - 0.00 in Snow Light Snow
8:56 PM -5.8 °F -9.4 °F 84% 30.36 in 10.0 mi Calm Calm - N/A Snow Light Snow
9:56 PM -4.0 °F -9.9 °F 76% 30.43 in 9.0 mi Calm Calm - 0.00 in Snow Light Snow
10:56 PM -2.9 °F -8.0 °F 79% 30.42 in 10.0 mi Calm Calm - 0.00 in   Overcast
11:56 PM -1.8 °F -8.0 °F 75% 30.41 in 10.0 mi Calm Calm - 0.00 in   Overcast